User: anonymous   Login
Location: Utrecht
(52.0830°N, 5.1330°E)
Time: 04:02:14
(UTC+01:00)
Language:

Cosmos 1092 Rocket - Orbit

View from above orbital plane
View from above orbital plane
View from above satellite
View from above satellite

Ground track
Ground track

The orbit data is extracted from the following two-line orbital elements,

1 11327U 79030B   17022.68767128 -.00000011 +00000-0 -26407-4 0  9997
2 11327 082.9472 043.8949 0026719 224.9306 272.8675 13.76963024898908
Epoch (UTC): 22 January 2017 16:30:14
Eccentricity: 0.0026719
inclination: 82.9472°
perigee height: 955 km
apogee height: 994 km
right ascension of ascending node: 43.8949°
argument of perigee: 224.9306°
revolutions per day: 13.76963024
mean anomaly at epoch: 272.8675°
orbit number at epoch: 89890

The dashed part of the orbit path shows where the satellite is in the earth's shadow,  

DLR